Aérodrome :
LOGIN :

S'inscrire | Disclaimer

   EN    FR    IT 

 










Légende :    VFR   VFR Marginal   IFR   IFR Intensif   IFR Très Intensif
Visi : 
Plafond : 
>= 8 km
>= 3000ft
5 à 8 km
1000 à 3000 ft
1500m à 5 km
500 à 1000 ft
800 à 1500m
200 à 500 ft
< 800m
< 200 ft
Symboles :   Orages  Brouillard  Fortes neiges  Fortes précipitations  Vent > 20 kt
SIGMETs :   Divers  Orages  Givrage  Turbulence  Onde Orograph.  Cendres Volcan.







- Altitude de l'aérodrome : 20 ft


EBFN - Koksijde

DERNIER METAR :
  • 211725Z VRB03KT 4000 BR FEW090 BKN200 01/M01 Q1018 GRN GRN

METARs EXPIRÉS :
  • 211625Z VRB03KT 4500 SCT230 03/M01 Q1017 GRN GRN
  • 211525Z 14004KT 9000 SCT250 04/M00 Q1017 BLU BLU

TAF TAF EBFN
Valide du 21 à 13h jusqu'au 21 à 22h UTC


211141Z 2113/2122 13006KT 8000 FEW160 SCT210
TEMPO 2113/2115 5000 BR
BECMG 2115/2117 09005KT 6000 SCT010 BKN080
PROB30
TEMPO 2118/2122 4000 -RA SCT008 BKN010
Pas de NOTAMs connus pour ce terrain.



MET'MAP, la Météo Aéronautique d'un coup d'oeil ! - Copyright ORBIFLY Décembre 2007 - Disclaimer

ORBIFLY MET'MAP TEAM :

Programmation & Développement : Alexandra Zaïnal
Conception & Développement : Baudouin d'Aumeries
Co-Programmation & Développement : Marc-Olivier Méhu
Soutien technique & logistique : Manuel Goepfert

Contact : metmap@orbifly.com




SOURCES & CREDITS :

   NOAA